GW4890 Weather Reports


time (UTC)temp
C
wind
direction
speed
KPH
gust
KPH
rain 1hr
cm
rain 24hr
cm
rain mn
cm
humidity
%
barometer
mb
20260508010123 18 345 9.7 22.5 0.00 0.00 0.00 24 1005.2
20260508005143 18 329 12.9 27.4 0.00 0.00 0.00 25 1005.2
20260508004122 18 339 12.9 24.1 0.00 0.00 0.00 25 1005.2
20260508003122 19 309 9.7 20.9 0.00 0.00 0.00 25 1005.2
20260508002122 20 37 9.7 20.9 0.00 0.00 0.00 24 1005.2
20260508001143 20 44 12.9 37.0 0.00 0.00 0.00 24 1005.0
20260508000123 20 84 9.7 22.5 0.00 0.00 0.00 23 1005.0
20260507235122 21 348 6.4 22.5 0.00 0.00 0.00 23 1005.0
20260507234143 20 5 4.8 14.5 0.00 0.00 0.00 23 1004.9
20260507233122 20 12 6.4 19.3 0.00 0.00 0.00 24 1004.9
20260507232122 20 333 12.9 29.0 0.00 0.00 0.00 23 1005.0
20260507231123 20 298 8.0 19.3 0.00 0.00 0.00 23 1005.0
20260507230123 20 282 9.7 25.7 0.00 0.00 0.00 23 1005.0
20260507225123 19 305 8.0 22.5 0.00 0.00 0.00 24 1005.0
20260507224123 20 352 14.5 41.8 0.00 0.00 0.00 23 1005.1
20260507223123 20 21 11.3 37.0 0.00 0.00 0.00 24 1005.2
20260507222125 20 356 16.1 38.6 0.00 0.00 0.00 23 1005.1
20260507221125 20 329 14.5 53.1 0.00 0.00 0.00 22 1005.2
20260507220146 21 350 16.1 40.2 0.00 0.00 0.00 22 1005.2
20260507215125 21 57 12.9 37.0 0.00 0.00 0.00 21 1005.2
20260507214146 20 354 14.5 37.0 0.00 0.00 0.00 23 1005.3
20260507213126 20 25 12.9 32.2 0.00 0.00 0.00 23 1005.6
20260507212123 20 318 17.7 46.7 0.00 0.00 0.00 23 1005.5
20260507211122 20 313 17.7 48.3 0.00 0.00 0.00 24 1005.7
20260507210123 18 344 19.3 51.5 0.00 0.00 0.00 24 1005.8
20260507205126 20 350 16.1 41.8 0.00 0.00 0.00 24 1005.8
20260507204126 20 353 17.7 45.1 0.00 0.00 0.00 24 1005.9
20260507203122 19 324 16.1 54.7 0.00 0.00 0.00 25 1005.8
20260507202122 18 335 19.3 46.7 0.00 0.00 0.00 25 1005.9
20260507201122 18 298 20.9 46.7 0.00 0.00 0.00 24 1005.8
20260507200122 18 301 19.3 48.3 0.00 0.00 0.00 25 1005.9
20260507195122 18 298 19.3 49.9 0.00 0.00 0.00 25 1005.9
20260507194122 18 324 20.9 54.7 0.00 0.00 0.00 25 1006.0
20260507193126 18 314 20.9 49.9 0.00 0.00 0.00 26 1005.8
20260507192123 18 320 22.5 56.3 0.00 0.00 0.00 28 1005.9
20260507191124 18 307 20.9 46.7 0.00 0.00 0.00 27 1006.0
20260507190122 18 309 19.3 53.1 0.00 0.00 0.00 28 1006.0
20260507185122 17 341 22.5 51.5 0.00 0.00 0.00 28 1005.9
20260507184122 17 328 22.5 51.5 0.00 0.00 0.00 30 1005.9
20260507183122 17 321 16.1 40.2 0.00 0.00 0.00 30 1006.0
20260507182122 17 314 24.1 56.3 0.00 0.00 0.00 30 1006.0
20260507181122 17 342 24.1 53.1 0.00 0.00 0.00 31 1005.9
20260507180122 17 320 22.5 51.5 0.00 0.00 0.00 31 1005.9
20260507175124 17 335 19.3 45.1 0.00 0.00 0.00 31 1005.9
20260507174122 16 332 20.9 54.7 0.00 0.00 0.00 33 1006.1
20260507173122 16 318 24.1 56.3 0.00 0.00 0.00 33 1006.1
20260507172122 16 319 22.5 45.1 0.00 0.00 0.00 33 1006.2
20260507171123 16 318 24.1 54.7 0.00 0.00 0.00 35 1006.2
20260507170122 16 330 25.7 54.7 0.00 0.00 0.00 36 1006.2
20260507165122 16 320 24.1 51.5 0.00 0.00 0.00 36 1006.3
20260507164122 16 331 25.7 51.5 0.00 0.00 0.00 36 1006.3
20260507163143 15 348 25.7 54.7 0.00 0.00 0.00 36 1006.2
20260507162123 15 332 27.4 56.3 0.00 0.00 0.00 36 1006.4
20260507161123 15 337 25.7 53.1 0.00 0.00 0.00 37 1006.5
20260507160122 15 319 25.7 56.3 0.00 0.00 0.00 37 1006.7
20260507155143 15 329 27.4 53.1 0.00 0.00 0.00 38 1006.7
20260507154122 15 317 27.4 61.2 0.00 0.00 0.00 38 1006.8
20260507153143 13 317 22.5 49.9 0.00 0.00 0.00 39 1006.7
20260507152122 13 321 22.5 49.9 0.00 0.00 0.00 41 1006.7
20260507151122 13 319 25.7 53.1 0.00 0.00 0.00 40 1006.8
20260507150143 13 318 25.7 51.5 0.00 0.00 0.00 39 1006.8
20260507145122 13 305 22.5 45.1 0.00 0.00 0.00 41 1006.8
20260507144122 13 306 20.9 43.5 0.00 0.00 0.00 43 1006.7
20260507143122 12 296 20.9 41.8 0.00 0.00 0.00 45 1006.7
20260507142122 12 288 19.3 38.6 0.00 0.00 0.00 45 1006.7
20260507141122 12 295 19.3 43.5 0.00 0.00 0.00 45 1006.6
20260507140122 12 299 17.7 37.0 0.00 0.00 0.00 47 1006.4
20260507135123 11 301 14.5 37.0 0.00 0.00 0.00 48 1006.4
20260507134122 11 292 14.5 29.0 0.00 0.00 0.00 51 1006.3
20260507133126 10 287 12.9 25.7 0.00 0.00 0.00 53 1006.2
20260507132122 10 294 14.5 30.6 0.00 0.00 0.00 53 1006.1
20260507131122 10 289 12.9 25.7 0.00 0.00 0.00 53 1006.0
20260507130126 10 288 12.9 29.0 0.00 0.00 0.00 53 1006.0
20260507125123 10 290 11.3 22.5 0.00 0.00 0.00 54 1006.0
20260507124144 10 294 12.9 27.4 0.00 0.00 0.00 56 1006.0
20260507123126 10 283 12.9 29.0 0.00 0.00 0.00 57 1006.0
20260507122143 10 286 9.7 24.1 0.00 0.00 0.00 58 1005.9
20260507121126 9 292 12.9 27.4 0.00 0.00 0.00 58 1005.8
20260507120123 9 288 16.1 37.0 0.00 0.00 0.00 59 1005.6
20260507115122 8 290 16.1 32.2 0.00 0.00 0.00 60 1005.6
20260507114122 8 280 11.3 24.1 0.00 0.00 0.00 60 1005.4
20260507113125 10 277 14.5 30.6 0.00 0.00 0.00 57 1005.4
20260507112122 10 264 14.5 29.0 0.00 0.00 0.00 57 1005.2
20260507111124 10 266 12.9 25.7 0.00 0.00 0.00 57 1005.2
20260507110123 10 273 11.3 22.5 0.00 0.00 0.00 60 1005.3
20260507105126 10 266 11.3 27.4 0.00 0.00 0.00 61 1005.3
20260507104122 10 261 12.9 25.7 0.00 0.00 0.00 59 1005.2
20260507103122 10 260 9.7 20.9 0.00 0.00 0.00 61 1005.2
20260507102124 10 259 9.7 20.9 0.00 0.00 0.00 62 1005.2
20260507101123 11 251 14.5 30.6 0.00 0.00 0.00 62 1005.2
20260507100122 10 254 12.9 29.0 0.00 0.00 0.00 63 1005.3
20260507095126 10 266 12.9 25.7 0.00 0.00 0.00 64 1005.3
20260507094122 10 259 11.3 25.7 0.00 0.00 0.00 64 1005.2
20260507093122 10 257 9.7 22.5 0.00 0.00 0.00 64 1005.1
20260507092126 10 248 9.7 22.5 0.00 0.00 0.00 65 1005.1
20260507091122 10 254 11.3 25.7 0.00 0.00 0.00 65 1005.0
20260507090122 10 254 8.0 17.7 0.00 0.00 0.00 65 1005.0
20260507085122 10 240 9.7 20.9 0.00 0.00 0.00 61 1005.0
20260507084124 10 238 11.3 22.5 0.00 0.00 0.00 61 1004.9
20260507083122 11 219 9.7 22.5 0.00 0.00 0.00 60 1004.8
20260507082122 10 226 9.7 20.9 0.00 0.00 0.00 62 1005.0
20260507081143 11 223 8.0 20.9 0.00 0.00 0.00 61 1005.1
20260507080144 11 242 11.3 22.5 0.00 0.00 0.00 62 1005.1
20260507075122 10 244 12.9 25.7 0.00 0.00 0.00 62 1005.2
20260507074123 10 249 9.7 22.5 0.00 0.00 0.00 67 1005.1
20260507073123 10 198 8.0 17.7 0.00 0.00 0.00 67 1005.1
20260507072124 10 251 9.7 20.9 0.00 0.00 0.00 66 1005.3
20260507071122 11 260 6.4 14.5 0.00 0.00 0.00 62 1005.3
20260507070122 10 262 6.4 17.7 0.00 0.00 0.00 60 1005.3
20260507065143 10 260 6.4 12.9 0.00 0.00 0.00 58 1005.3
20260507064122 10 263 6.4 14.5 0.00 0.00 0.00 56 1005.3
20260507063143 11 273 6.4 14.5 0.00 0.00 0.00 55 1005.3
20260507062122 11 300 6.4 14.5 0.00 0.00 0.00 53 1005.3
20260507061122 10 336 8.0 19.3 0.00 0.00 0.00 53 1005.2
20260507060143 10 16 4.8 12.9 0.00 0.00 0.00 53 1005.2
20260507055122 10 7 6.4 17.7 0.00 0.00 0.00 53 1005.3
20260507054123 10 90 3.2 9.7 0.00 0.00 0.00 53 1004.8
20260507053123 10 315 0.0 4.8 0.00 0.00 0.00 48 1004.7
20260507052144 10 86 3.2 9.7 0.00 0.00 0.00 49 1004.6
20260507051123 10 80 4.8 12.9 0.00 0.00 0.00 49 1004.5
20260507050122 9 349 3.2 9.7 0.00 0.00 0.00 52 1004.5
20260507045143 10 74 3.2 8.0 0.00 0.00 0.00 50 1004.4
20260507044122 10 14 4.8 8.0 0.00 0.00 0.00 50 1004.4
20260507043122 11 75 3.2 9.7 0.00 0.00 0.00 47 1004.2
20260507042122 12 104 6.4 16.1 0.00 0.00 0.00 42 1003.9
20260507041122 12 114 11.3 22.5 0.00 0.00 0.00 41 1003.5
20260507040122 12 109 9.7 20.9 0.00 0.00 0.00 41 1003.5
20260507035122 13 113 9.7 20.9 0.00 0.00 0.00 41 1003.3
20260507034143 13 112 9.7 19.3 0.00 0.00 0.00 41 1003.1
20260507033123 13 109 6.4 14.5 0.00 0.00 0.00 40 1003.0
20260507032122 13 107 9.7 20.9 0.00 0.00 0.00 38 1002.8
20260507031143 13 105 11.3 20.9 0.00 0.00 0.00 38 1002.7
20260507030122 14 86 11.3 20.9 0.00 0.00 0.00 37 1002.7
20260507025143 15 88 11.3 27.4 0.00 0.00 0.00 36 1002.5
20260507024122 15 78 14.5 30.6 0.00 0.00 0.00 34 1002.3
20260507023122 16 89 17.7 37.0 0.00 0.00 0.00 33 1002.2
20260507022123 16 88 20.9 43.5 0.00 0.00 0.00 32 1002.1
20260507021122 17 90 20.9 48.3 0.00 0.00 0.00 30 1002.0
20260507020123 17 84 22.5 49.9 0.00 0.00 0.00 28 1002.0
20260507015144 18 92 14.5 37.0 0.00 0.00 0.00 29 1001.8
20260507014122 18 87 9.7 22.5 0.00 0.00 0.00 29 1001.9
20260507013122 18 72 9.7 27.4 0.00 0.00 0.00 29 1001.8
20260507012122 18 70 16.1 41.8 0.00 0.00 0.00 29 1001.7
20260507011122 18 13 12.9 35.4 0.00 0.00 0.00 30 1001.7